Omaha Offutt, NE

12:12 AM CDT on April 22, 2018 (GMT -0500)
Offutt Air Force Base

Weather History for KOFF - May, 2014

Change the Weather History Date:

Friday, May 9, 2014

  Actual Average Record
Temperature  
Mean Temperature 56 °F -  
Max Temperature 69 °F 69 °F 95 °F (2011)
Min Temperature 44 °F 49 °F 42 °F (1997)
Degree Days  
Heating Degree Days 8    
Growing Degree Days 6 (Base 50)    
Moisture  
Dew Point 41 °F    
Average Humidity 62    
Maximum Humidity 87    
Minimum Humidity 33    
Precipitation  
Precipitation 0.00 in - - ()
Sea Level Pressure  
Sea Level Pressure 29.85 in    
Wind  
Wind Speed 11 mph (West)    
Max Wind Speed 18 mph    
Max Gust Speed 26 mph    
Visibility 10 miles    
Events      
Averages and records for this station are not official NWS values.
T = Trace of Precipitation, MM = Missing Value Source: NWS Daily Summary

Daily Weather History Graph

Daily Weather History Graph

Search for Another Location

Airport or City:

Astronomy

May. 09, 2014 Rise Set
Actual Time 6:11 AM CDT 8:29 PM CDT
Civil Twilight 5:41 AM CDT 8:59 PM CDT
Nautical Twilight 5:03 AM CDT 9:37 PM CDT
Astronomical Twilight 4:21 AM CDT 10:19 PM CDT
Moon 3:24 PM CDT (5/9) 3:17 AM CDT (5/9)
Length of Visible Light 15h 18m
Length of Day
14h 17m
Waxing Gibbous, 74% of the Moon is Illuminated
May 9
Waxing Gibbous
May 14
Full
May 21
Last Quarter
May 28
New
Jun 5
First Quarter

Hourly Weather History & Observations

Time (CDT) Temp. Windchill Dew Point Humidity Pressure Visibility Wind Dir Wind Speed Gust Speed Precip Events Conditions
12:58 AM 49.5 °F - 41.7 °F 75% 29.81 in 10.0 mi WNW 15.0 mph 26.5 mph N/A   Clear
1:43 AM 48.2 °F - 41.0 °F 76% 29.80 in 10.0 mi WNW 13.8 mph - N/A   Mostly Cloudy
1:58 AM 49.5 °F - 41.7 °F 75% 29.80 in 10.0 mi WNW 15.0 mph 21.9 mph N/A   Overcast
2:58 AM 47.8 °F - 40.6 °F 76% 29.80 in 10.0 mi NW 13.8 mph 25.3 mph N/A   Overcast
3:58 AM 47.8 °F - 40.1 °F 75% 29.81 in 10.0 mi NW 18.4 mph 26.5 mph N/A   Overcast
4:58 AM 46.8 °F - 39.6 °F 76% 29.84 in 10.0 mi WNW 9.2 mph - N/A   Mostly Cloudy
5:03 AM 46.4 °F 41.9 °F 39.2 °F 76% 29.84 in 10.0 mi West 9.2 mph - N/A   Scattered Clouds
5:58 AM 44.8 °F 40.4 °F 39.9 °F 83% 29.86 in 10.0 mi West 8.1 mph - N/A   Clear
6:58 AM 44.8 °F 39.9 °F 40.3 °F 84% 29.89 in 10.0 mi West 9.2 mph - N/A   Partly Cloudy
7:08 AM 44.6 °F 39.2 °F 41.0 °F 87% 29.88 in 10.0 mi West 10.4 mph - N/A   Mostly Cloudy
7:58 AM 46.6 °F - 40.8 °F 80% 29.91 in 10.0 mi West 6.9 mph - N/A   Mostly Cloudy
8:08 AM 48.2 °F - 41.0 °F 76% 29.89 in 10.0 mi West 11.5 mph - N/A   Scattered Clouds
8:58 AM 50.0 °F - 41.7 °F 73% 29.91 in 10.0 mi WNW 11.5 mph - N/A   Clear
9:58 AM 54.0 °F - 41.9 °F 64% 29.91 in 10.0 mi NW 10.4 mph - N/A   Clear
10:58 AM 57.4 °F - 39.7 °F 52% 29.89 in 10.0 mi Variable 5.8 mph 18.4 mph N/A   Clear
11:58 AM 59.4 °F - 40.3 °F 49% 29.89 in 10.0 mi West 10.4 mph - N/A   Clear
12:58 PM 62.1 °F - 38.5 °F 42% 29.87 in 10.0 mi West 9.2 mph - N/A   Clear
1:58 PM 63.7 °F - 40.1 °F 42% 29.86 in 10.0 mi WNW 11.5 mph - N/A   Clear
2:41 PM 66.2 °F - 39.2 °F 37% 29.84 in 10.0 mi West 12.7 mph - N/A   Clear
2:58 PM 66.0 °F - 38.8 °F 37% 29.84 in 10.0 mi West 12.7 mph 21.9 mph N/A   Clear
3:58 PM 68.0 °F - 39.6 °F 35% 29.83 in 10.0 mi West 8.1 mph - N/A   Clear
4:58 PM 68.9 °F - 38.8 °F 33% 29.82 in 10.0 mi West 12.7 mph 20.7 mph N/A   Partly Cloudy
5:58 PM 69.1 °F - 39.2 °F 34% 29.81 in 10.0 mi SW 8.1 mph - N/A   Clear
6:58 PM 68.7 °F - 41.2 °F 37% 29.80 in 10.0 mi SW 8.1 mph - N/A   Clear
7:58 PM 67.6 °F - 38.7 °F 35% 29.80 in 10.0 mi Calm Calm - N/A   Clear
8:58 PM 55.2 °F - 43.7 °F 65% 29.82 in 10.0 mi NNE 1.2 mph - N/A   Clear
9:58 PM 50.2 °F - 43.5 °F 78% 29.83 in 10.0 mi Calm Calm - N/A   Clear
10:58 PM 49.5 °F - 42.6 °F 77% 29.85 in 10.0 mi Calm Calm - N/A   Clear
11:58 PM 46.9 °F - 41.9 °F 83% 29.84 in 10.0 mi Calm Calm - N/A   Clear